Home   Weather   Arnhem   Past weeks

Flag for Netherlands Past Weather in Arnhem, Netherlands — Yesterday and Last 2 Weeks

Now
57 °F

Passing clouds.


Feels Like: 57 °F
Forecast: 52 / 77 °F
Wind: 2 mph from North

Location: Deelen

Current Time: Aug 30, 2016 at 10:57:42 PM

Latest Report: Aug 30, 2016 at 10:25 PM


Visibility: N/A

Pressure: 30.24 "Hg

Humidity: 82%

Dew Point: 52 °F

Location of ArnhemLocation

Past Weather in Arnhem — Graph

°F

Arnhem Temperature Yesterday

Maximum temperature yesterday: 70 °F (at 4:25 PM)
Minimum temperature yesterday: 52 °F (at 11:25 PM)
Average temperature yesterday: 64 °F

High & Low Weather Summary for the Past Weeks

 TemperatureHumidityPressure
High90 °F (Aug 25, 4:25 PM)100% (Aug 22, 5:55 AM)30.33 "Hg (Aug 22, 5:55 AM)
Low45 °F (Aug 30, 6:25 AM)33% (Aug 24, 4:25 PM)29.77 "Hg (Aug 19, 2:55 PM)
Average67 °F72%30.03 "Hg
* Reported Aug 15 9:25 PM — Aug 30 9:25 PM, Arnhem, Weather by CustomWeather, © 2016

Note: Actual official high and low records may vary slightly from our data, if they occured in-between our weather recording intervals... More about our weather records

Advertising

Arnhem Weather History for the Previous 24 Hours

Scroll right to see more
 ConditionsComfort  
Time TempWeatherWind HumidityBarometerVisibility
9:25 PM
Tue, Aug 30
61 °FCool.3 mph72%30.24 "HgN/A
8:55 PM64 °FMild.5 mph64%30.24 "HgN/A
8:25 PM66 °FMild.5 mph60%30.24 "HgN/A
7:55 PM70 °FPassing clouds.5 mph53%30.24 "HgN/A
7:25 PM72 °FMild.6 mph50%30.24 "HgN/A
6:55 PM73 °FMild.7 mph47%30.24 "HgN/A
6:25 PM73 °FMild.7 mph47%30.24 "HgN/A
5:55 PM73 °FMild.7 mph47%30.24 "HgN/A
5:25 PM73 °FMild.8 mph47%30.24 "HgN/A
4:55 PM75 °FMild.3 mph41%30.24 "HgN/A
4:25 PM73 °FPassing clouds.3 mph44%30.27 "HgN/A
3:55 PM75 °FPassing clouds.2 mph41%30.27 "HgN/A
3:25 PM73 °FMild.3 mph44%30.27 "HgN/A
2:55 PM73 °FMild.2 mph44%30.27 "HgN/A
2:25 PM72 °FPassing clouds.3 mph47%30.30 "HgN/A
1:55 PM72 °FMild.5 mph47%30.30 "HgN/A
1:25 PM72 °FMild.6 mph47%30.30 "HgN/A
12:55 PM70 °FPassing clouds.5 mph53%30.30 "HgN/A
12:25 PM68 °FMild.3 mph60%30.30 "HgN/A
11:55 AM68 °FMild.5 mph56%30.30 "HgN/A
11:25 AM66 °FMild.3 mph60%30.33 "HgN/A
10:55 AM66 °FMild.3 mph64%30.33 "HgN/A
10:25 AM64 °FPassing clouds.3 mph68%30.30 "HgN/A
9:55 AM63 °FPassing clouds.5 mph73%30.30 "HgN/A
9:25 AM61 °FPassing clouds.2 mph83%30.30 "HgN/A
8:55 AM59 °FPassing clouds.No wind82%30.30 "HgN/A
8:25 AM52 °FPassing clouds.1 mph94%30.30 "HgN/A
7:55 AM48 °FPassing clouds.No wind94%30.27 "HgN/A
7:25 AM45 °FQuite cool.1 mph100%30.27 "HgN/A
6:55 AM45 °FPassing clouds.1 mph93%30.27 "HgN/A
6:25 AM45 °FPassing clouds.No wind100%30.27 "HgN/A
5:55 AM46 °FPassing clouds.No wind93%30.27 "HgN/A
5:25 AM46 °FCool.1 mph93%30.27 "HgN/A
4:55 AM46 °FPassing clouds.1 mph93%30.27 "HgN/A
4:25 AM46 °FPassing clouds.1 mph100%30.27 "HgN/A
3:55 AM46 °FPassing clouds.1 mph100%30.27 "HgN/A
3:25 AM48 °FCool.1 mph94%30.27 "HgN/A
2:55 AM48 °FPassing clouds.1 mph94%30.27 "HgN/A
2:25 AM48 °FCool.No wind100%30.27 "HgN/A
1:55 AM50 °FPassing clouds.1 mph94%30.27 "HgN/A
1:25 AM48 °FPassing clouds.2 mph100%30.27 "HgN/A
12:55 AM50 °FCool.No wind94%30.27 "HgN/A
12:25 AM52 °FCool.No wind94%30.24 "HgN/A
11:55 PM
Mon, Aug 29
52 °FCool.1 mph94%30.24 "HgN/A
11:25 PM52 °FCool.1 mph94%30.24 "HgN/A
10:55 PM54 °FPassing clouds.1 mph94%30.24 "HgN/A
10:25 PM54 °FPassing clouds.No wind94%30.24 "HgN/A
Weather by CustomWeather, © 2016

See weather overviewHow to use our weather pages